Ludington, MI

1:36 PM EDT on June 23, 2017 (GMT -0400)
Mason County

Weather History for KLDM - December, 2012

Change the Weather History Date:

Tuesday, December 4, 2012

  Actual Average Record
Temperature  
Mean Temperature 42 °F -  
Max Temperature 51 °F 35 °F 59 °F (1951)
Min Temperature 32 °F 22 °F 1 °F (2002)
Degree Days  
Heating Degree Days 23    
Moisture  
Dew Point 34 °F    
Average Humidity 67    
Maximum Humidity 89    
Minimum Humidity 48    
Precipitation  
Precipitation 0.00 in - - ()
Sea Level Pressure  
Sea Level Pressure 30.00 in    
Wind  
Wind Speed 10 mph (West)    
Max Wind Speed 16 mph    
Max Gust Speed 24 mph    
Visibility 10 miles    
Events      
Averages and records for this station are not official NWS values.
T = Trace of Precipitation, MM = Missing Value Source: NWS Daily Summary

Daily Weather History Graph

Daily Weather History Graph

Search for Another Location

Airport or City:

Trip Planner

Search our weather history database for the weather conditions in past years. The results will help you decide how hot, cold, wet, or windy it might be!

Date:

Astronomy

Dec. 04, 2012 Rise Set
Actual Time 8:03 AM EST 5:08 PM EST
Civil Twilight 7:31 AM EST 5:40 PM EST
Nautical Twilight 6:55 AM EST 6:16 PM EST
Astronomical Twilight 6:20 AM EST 6:51 PM EST
Moon 11:03 PM EST (12/4) 11:50 AM EST (12/4)
Length of Visible Light 10h 09m
Length of Day
9h 04m
Waning Gibbous, 69% of the Moon is Illuminated
Dec 4
Waning Gibbous
Dec 6
Last Quarter
Dec 13
New
Dec 20
First Quarter
Dec 28
Full

Hourly Weather History & Observations

Time (EST) Temp. Windchill Dew Point Humidity Pressure Visibility Wind Dir Wind Speed Gust Speed Precip Events Conditions
12:15 AM 52.7 °F - 49.5 °F 89% 29.79 in 4.0 mi SW 13.8 mph 20.7 mph N/A   Overcast
12:35 AM 52.7 °F - 49.6 °F 89% 29.81 in 5.0 mi WSW 11.5 mph - N/A   Overcast
12:55 AM 50.7 °F - 47.5 °F 89% 29.82 in 7.0 mi West 8.1 mph - N/A   Mostly Cloudy
1:15 AM 50.2 °F - 46.0 °F 86% 29.83 in 7.0 mi West 8.1 mph - N/A   Scattered Clouds
1:35 AM 50.2 °F - 45.7 °F 85% 29.85 in 7.0 mi West 8.1 mph - N/A   Clear
1:55 AM 50.2 °F - 45.7 °F 85% 29.86 in 7.0 mi West 5.8 mph - N/A   Clear
2:15 AM 50.2 °F - 44.8 °F 82% 29.87 in 10.0 mi WNW 9.2 mph 19.6 mph N/A   Clear
2:36 AM 50.2 °F - 43.9 °F 79% 29.87 in 10.0 mi WNW 11.5 mph 18.4 mph N/A   Clear
2:55 AM 50.2 °F - 43.3 °F 77% 29.89 in 10.0 mi WNW 12.7 mph 17.3 mph N/A   Clear
3:15 AM 50.2 °F - 43.3 °F 77% 29.90 in 10.0 mi West 6.9 mph - N/A   Clear
3:55 AM 47.7 °F - 40.8 °F 77% 29.91 in 10.0 mi WNW 5.8 mph - N/A   Clear
4:15 AM 47.7 °F - 40.1 °F 75% 29.91 in 10.0 mi WNW 4.6 mph - N/A   Clear
4:35 AM 47.7 °F - 40.3 °F 76% 29.91 in 10.0 mi WSW 3.5 mph - N/A   Clear
5:15 AM 44.6 °F - 38.7 °F 80% 29.92 in 10.0 mi Calm Calm - N/A   Clear
5:35 AM 43.9 °F - 38.8 °F 82% 29.92 in 10.0 mi Calm Calm - N/A   Clear
5:55 AM 43.2 °F 39.0 °F 37.9 °F 82% 29.92 in 10.0 mi SW 6.9 mph - N/A   Clear
6:15 AM 44.2 °F 40.3 °F 38.3 °F 80% 29.92 in 10.0 mi WSW 6.9 mph - N/A   Clear
6:35 AM 43.7 °F 39.7 °F 37.6 °F 79% 29.94 in 10.0 mi WSW 6.9 mph - N/A   Clear
6:55 AM 44.4 °F 40.5 °F 37.2 °F 76% 29.94 in 10.0 mi WSW 6.9 mph - N/A   Clear
7:15 AM 43.9 °F 39.3 °F 37.4 °F 78% 29.95 in 10.0 mi WSW 8.1 mph - N/A   Clear
7:35 AM 43.0 °F 38.8 °F 36.5 °F 78% 29.96 in 10.0 mi SW 6.9 mph - N/A   Clear
7:55 AM 43.9 °F 39.9 °F 36.5 °F 75% 29.97 in 10.0 mi WSW 6.9 mph - N/A   Clear
8:15 AM 43.9 °F 38.3 °F 36.1 °F 74% 29.97 in 10.0 mi WSW 10.4 mph - N/A   Clear
8:35 AM 44.8 °F 39.9 °F 36.3 °F 72% 29.97 in 10.0 mi WSW 9.2 mph - N/A   Clear
8:55 AM 44.4 °F 39.5 °F 36.7 °F 74% 29.97 in 10.0 mi WSW 9.2 mph - N/A   Clear
9:16 AM 44.2 °F 39.7 °F 36.5 °F 74% 29.98 in 10.0 mi WSW 8.1 mph - N/A   Clear
9:35 AM 45.1 °F 41.4 °F 36.7 °F 72% 29.99 in 10.0 mi West 6.9 mph - N/A   Clear
9:55 AM 45.1 °F 40.8 °F 36.0 °F 70% 29.99 in 10.0 mi West 8.1 mph - N/A   Clear
10:15 AM 45.5 °F 41.8 °F 34.9 °F 66% 29.99 in 10.0 mi West 6.9 mph - N/A   Clear
10:35 AM 47.7 °F - 36.9 °F 66% 29.99 in 10.0 mi West 6.9 mph - N/A   Clear
10:55 AM 47.7 °F - 35.4 °F 63% 29.99 in 10.0 mi West 9.2 mph - N/A   Clear
11:15 AM 47.7 °F - 35.2 °F 62% 30.00 in 10.0 mi West 6.9 mph - N/A   Clear
11:35 AM 47.7 °F - 35.4 °F 63% 29.99 in 10.0 mi West 8.1 mph - N/A   Clear
11:55 AM 47.7 °F - 35.6 °F 63% 29.99 in 10.0 mi West 9.2 mph 16.1 mph N/A   Clear
12:15 PM 47.7 °F - 34.9 °F 61% 29.99 in 10.0 mi West 6.9 mph - N/A   Clear
12:35 PM 47.7 °F - 34.5 °F 60% 29.97 in 10.0 mi West 9.2 mph - N/A   Clear
12:55 PM 47.7 °F - 34.9 °F 61% 29.97 in 10.0 mi WSW 10.4 mph 16.1 mph N/A   Clear
1:15 PM 50.2 °F - 37.4 °F 62% 29.97 in 10.0 mi WSW 10.4 mph 16.1 mph N/A   Clear
1:35 PM 50.0 °F - 37.2 °F 62% 29.98 in 10.0 mi WSW 9.2 mph 17.3 mph N/A   Clear
1:55 PM 50.2 °F - 36.7 °F 60% 29.97 in 10.0 mi West 13.8 mph 18.4 mph N/A   Clear
2:15 PM 50.2 °F - 36.9 °F 60% 29.97 in 10.0 mi WSW 11.5 mph 17.3 mph N/A   Clear
2:35 PM 50.2 °F - 36.9 °F 60% 29.97 in 10.0 mi West 10.4 mph 17.3 mph N/A   Clear
2:55 PM 50.2 °F - 36.9 °F 60% 29.97 in 10.0 mi WSW 12.7 mph 19.6 mph N/A   Clear
3:15 PM 50.2 °F - 36.0 °F 58% 29.97 in 10.0 mi West 11.5 mph 17.3 mph N/A   Clear
3:35 PM 50.2 °F - 37.0 °F 61% 29.98 in 10.0 mi West 10.4 mph 16.1 mph N/A   Clear
3:55 PM 47.8 °F - 35.6 °F 63% 29.99 in 10.0 mi WSW 11.5 mph 16.1 mph N/A   Clear
4:15 PM 47.7 °F - 35.6 °F 63% 30.00 in 10.0 mi West 8.1 mph - N/A   Clear
4:35 PM 47.7 °F - 35.6 °F 63% 30.01 in 10.0 mi West 9.2 mph - N/A   Clear
4:55 PM 47.7 °F - 34.9 °F 61% 30.02 in 10.0 mi WNW 6.9 mph - N/A   Clear
5:15 PM 45.3 °F 39.7 °F 31.6 °F 59% 30.03 in 10.0 mi WNW 11.5 mph 17.3 mph N/A   Clear
5:35 PM 45.1 °F 38.1 °F 31.6 °F 59% 30.04 in 10.0 mi WNW 16.1 mph 21.9 mph N/A   Clear
5:55 PM 43.9 °F 37.5 °F 30.4 °F 59% 30.05 in 10.0 mi NW 12.7 mph 19.6 mph N/A   Clear
6:15 PM 43.0 °F 36.8 °F 28.2 °F 56% 30.06 in 10.0 mi NW 11.5 mph 21.9 mph N/A   Clear
6:35 PM 42.8 °F 35.8 °F 27.7 °F 55% 30.07 in 10.0 mi NW 13.8 mph 20.7 mph N/A   Clear
6:55 PM 41.5 °F 34.2 °F 25.2 °F 52% 30.08 in 10.0 mi NW 13.8 mph 19.6 mph N/A   Clear
7:15 PM 41.0 °F 35.2 °F 27.0 °F 57% 30.10 in 10.0 mi NW 9.2 mph 19.6 mph N/A   Clear
7:35 PM 40.1 °F 32.0 °F 25.3 °F 56% 30.10 in 10.0 mi NW 15.0 mph 21.9 mph N/A   Clear
7:55 PM 40.1 °F 32.7 °F 26.2 °F 58% 30.11 in 10.0 mi NW 12.7 mph 21.9 mph N/A   Clear
8:15 PM 40.1 °F 32.7 °F 26.6 °F 59% 30.12 in 10.0 mi NW 12.7 mph 18.4 mph N/A   Clear
8:35 PM 40.1 °F 32.0 °F 25.3 °F 56% 30.14 in 10.0 mi NNW 15.0 mph 23.0 mph N/A   Mostly Cloudy
8:55 PM 37.6 °F 28.4 °F 22.6 °F 55% 30.15 in 10.0 mi NNW 16.1 mph 24.2 mph N/A   Overcast
9:15 PM 37.4 °F 28.9 °F 21.2 °F 52% 30.16 in 10.0 mi NNW 13.8 mph 21.9 mph N/A   Mostly Cloudy
9:35 PM 35.1 °F 26.4 °F 19.9 °F 54% 30.16 in 10.0 mi North 12.7 mph 20.7 mph N/A   Scattered Clouds
9:55 PM 35.1 °F 26.9 °F 18.9 °F 52% 30.18 in 10.0 mi NNW 11.5 mph 23.0 mph N/A   Clear
10:15 PM 35.1 °F 27.4 °F 18.3 °F 51% 30.18 in 10.0 mi NNW 10.4 mph 20.7 mph N/A   Clear
10:35 PM 35.1 °F 25.5 °F 17.8 °F 49% 30.20 in 10.0 mi North 15.0 mph 18.4 mph N/A   Clear
10:55 PM 33.3 °F 24.6 °F 15.3 °F 48% 30.20 in 10.0 mi NNW 11.5 mph 18.4 mph N/A   Clear
11:15 PM 32.5 °F 24.8 °F 16.2 °F 51% 30.20 in 10.0 mi NNW 9.2 mph 16.1 mph N/A   Clear
11:35 PM 35.1 °F 26.4 °F 21.6 °F 58% 30.22 in 10.0 mi North 12.7 mph 21.9 mph N/A   Mostly Cloudy
11:55 PM 32.5 °F 22.7 °F 19.4 °F 58% 30.23 in 10.0 mi NNW 13.8 mph 23.0 mph N/A   Overcast